Location: Unspecified
(54.1780°N, 0.0000°E)
Time: 06:48:35
(UTC+00:00)

Altair - Pass Details

Date: 19 June 2019
Orbit: 1501 x 1683 km, 47.2° (Epoch: 15 July)

Event Time Altitude Azimuth Distance (km) Brightness Sun altitude
Rises 21:45:08 0° 239° (WSW) 4,747 10.1 -7.0°
Reaches altitude 10° 21:48:16 10° 234° (SW) 3,788 9.5 -7.3°
Maximum altitude 21:57:29 52° 162° (SSE) 1,960 7.7 -7.9°
Drops below altitude 10° 22:07:02 10° 91° (E) 3,921 9.4 -8.6°
Sets 22:10:19 0° 87° (E) 4,923 9.9 -8.8°
